Regional Weather Roundup
Issued by NWS

Home | Current Version | Previous Version | Graphics & Text | Print | Product List | Glossary On
Versions: 1 2 3 4 5 6 7 8 9 10 11 12 13 14 15 16 17 18 19 20 21 22 23 24 25 26 27 28 29 30 31 32 33 34 35 36 37 38 39 40 41 42 43 44 45 46 47 48 49 50
000
ASUS43 KBIS 232110
RWRND

NORTH DAKOTA REGIONAL WEATHER ROUNDUP
NATIONAL WEATHER SERVICE BISMARCK ND
400 PM CDT TUE AUG 23 2016

NOTE: "FAIR" INDICATES FEW OR NO CLOUDS BELOW 12,000 FEET WITH NO
SIGNIFICANT WEATHER AND/OR OBSTRUCTIONS TO VISIBILITY.


NDZ001>003-009>011-017-232200-
NORTHWEST NORTH DAKOTA

CITY           SKY/WX    TMP DP  RH WIND       PRES   REMARKS
WILLISTON      SUNNY     79  39  23 W21G31    29.85R
MINOT          SUNNY     78  44  29 W21G30    29.79R
MINOT AFB      SUNNY     76  43  31 NW20G29   29.78R
$$

NDZ018>021-031>035-040>046-232200-
SOUTHWEST NORTH DAKOTA

CITY           SKY/WX    TMP DP  RH WIND       PRES   REMARKS
BISMARCK       MOSUNNY   82  39  21 NW22G33   29.80R
DICKINSON      SUNNY     77  30  17 NW21G29   29.88R
GARRISON         N/A     81  38  21 NW24G39   29.81R
HETTINGER ARPT SUNNY     79  34  19 NW23G33   29.91R
$$

NDZ004>008-012>016-024-026-027-054-232200-
NORTHEAST NORTH DAKOTA

CITY           SKY/WX    TMP DP  RH WIND       PRES   REMARKS
GRAND FORKS    PTSUNNY   85  68  56 S20       29.65S
GRND FRKS AFB  CLOUDY    83  68  61 SW16      29.66S
DEVILS LAKE    CLOUDY    76  69  79 W9        29.70R
$$

NDZ022-023-025-028>030-036>039-047>053-232200-
SOUTHEAST NORTH DAKOTA

CITY           SKY/WX    TMP DP  RH WIND       PRES   REMARKS
FARGO          SUNNY     89  68  49 S21G30    29.69R HX  93
JAMESTOWN      MOSUNNY   78  70  76 NW14      29.72R
$$





USA.gov is the U.S. government's official web portal to all federal, state and local government web resources and services.